Regional Weather Roundup
Issued by NWS Charleston, SC

Current Version | Previous Version | Text Only | Print | Product List | Glossary Off
Versions: 1 2 3 4 5 6 7 8 9 10 11 12 13 14 15 16 17 18 19 20 21 22 23 24 25 26 27 28 29 30 31 32 33 34 35 36 37 38 39 40 41 42 43 44 45 46 47 48 49 50

000
ASUS42 KCHS 260228
RWRCHS

REGIONAL WEATHER ROUNDUP
NATIONAL WEATHER SERVICE CHARLESTON SC
1000 PM EDT WED MAY 25 2016

NOTE: "FAIR" INDICATES FEW OR NO CLOUDS BELOW 12,000 FEET WITH NO
SIGNIFICANT WEATHER AND/OR OBSTRUCTIONS TO VISIBILITY.

NOT ALL STATIONS ARE QUALITY CONTROLLED. USE DATA WITH CAUTION...
ESPECIALLY DEWPOINT OBSERVATIONS.

SCZ027-030-031-034>040-042>050-260300-
...SOUTHEAST SOUTH CAROLINA...

CITY           SKY/WX    TMP DP  RH WIND       PRES   REMARKS
N CHARLESTON   CLEAR     73  65  75 S8        30.20R
WATERFRONT PRK   N/A     75  70  84 S6        30.17S
MOUNT PLEASANT FAIR      72  68  88 CALM      30.22R
JOHNS ISLAND   FAIR      73  68  83 S7        30.21R
PINOPOLIS        N/A     79  63  57 VRB3      30.11S
MONCKS CORNER  FAIR      68  57  68 S3        30.21R
SUMMERVILLE    FAIR      72  64  78 CALM      30.21R
BEAUFORT MCAS  CLEAR     75  66  73 CALM      30.20R
BEAUFORT ARPT  FAIR      73  64  73 CALM      30.21R
HILTON HEAD IS CLEAR     73  68  83 VRB7      30.22R
WALTERBORO     CLEAR     73  63  68 SE3       30.21R
ALLENDALE      FAIR      77  61  57 S5        30.19R

...SOUTHERN MIDLANDS AND PEE DEE...

CITY           SKY/WX    TMP DP  RH WIND       PRES   REMARKS
GEORGETOWN     FAIR      70  64  83 S5        30.22R
KINGSTREE      FAIR      72  59  64 SE6       30.19R
ORANGEBURG     CLEAR     72  60  66 S3        30.19R
BARNWELL       FAIR      79  64  61 CALM      30.20R
AIKEN          FAIR      70  55  60 CALM      30.24R
MANNING        FAIR      72  63  73 S3        30.19R
COLUMBIA       CLEAR     73  61  65 W3        30.17R
SUMTER         CLEAR     73  61  66 CALM      30.15R
FLORENCE       CLEAR     73  63  70 SE7       30.18R
MYRTLE BEACH   CLEAR     75  63  64 S12       30.21S
N MYRTLE BEACH CLEAR     75  69  81 S12       30.20R

$$

GAZ063-065-086>088-099>101-113>116-118-119-134>141-150-260300-
...SOUTHEAST GEORGIA...

CITY           SKY/WX    TMP DP  RH WIND       PRES   REMARKS
SAVANNAH ARPT  CLEAR     73  63  70 S6        30.20R
HUNTER AAF     CLEAR     74  67  79 S5        30.18R
FORT STEWART   CLEAR     74  62  66 CALM      30.18R
STATESBORO     CLEAR     75  64  68 S3        30.20R
SYLVANIA       CLEAR     77  62  59 CALM      30.21R
CLAXTON        FAIR      73  64  73 CALM      30.20R

...CSRA...CENTRAL AND FAR SOUTHEAST GEORGIA...

CITY           SKY/WX    TMP DP  RH WIND       PRES   REMARKS
THOMSON        CLEAR     72  66  81 CALM      30.24R
AUGUSTA-BUSH   CLEAR     69  62  78 CALM      30.17R
AUGUSTA-DANIEL CLEAR     81  56  42 CALM      30.19R
SWAINSBORO     FAIR      72  61  68 CALM      30.20R
VIDALIA        CLEAR     75  61  60 SE3       30.20R
EASTMAN        FAIR      70  64  81 CALM      30.21R
HAZLEHURST     FAIR      77  60  54 CALM      30.19R
ALMA           CLEAR     73  60  63 SE3       30.18R
WAYCROSS       CLEAR     75  59  57 SE7       30.20R
JESUP          FAIR      68  59  73 SE3       30.20R
BAXLEY         FAIR      77  57  50 S3        30.19R
BRUNSWICK      CLEAR     75  70  83 SE3       30.21S
SAINT SIMONS   CLEAR     76  66  71 SE8       30.20R

$$

SCZ027-028-034-036>038-045-046-048>050-GAZ119-141-260300-
...LAKE AND SUPPLEMENTAL COASTAL OBSERVATIONS...

STATION/POSITION TIME  TEMP    WIND        PRES    WAVE   SWELL
                       AIR SEA DIR/SP/G            HT/PER HT/PER/DIR
                 (UTC) (F)     (DEG/KT/KT) (MB)    (FT/S) (FT/S/D)
WINYAH BAY       0100   75     200/  6     1021.0
LAKE MURRAY      0100   78        CALM     1020.7R
ACE BASIN NERRS  0100   75        CALM     1022.0S
FORT PULASKI     0200      77  150/  4/  7 1023.1R
SAPELO ISLAND    0200   75     150/  5     1023.0R

$$

ANZ835-935-AMZ111-154-330-350-352-354-370-450-454-472-260300-
...C-MAN AND BUOY OBSERVATIONS...

STATION/POSITION TIME  TEMP    WIND        PRES    WAVE   SWELL
                       AIR SEA DIR/SP/G            HT/PER HT/PER/DIR
                 (UTC) (F)     (DEG/KT/KT) (MB)    (FT/S) (FT/S/D)
BUOY 41004       0150   78 77  190/ 10/ 12 1022.5R   2/ 8   2/ 8
BUOY 41008       0150   78 77  150/ 10/ 12 1022.8R   2/ 8   2/ 80/ 8
FOLLY BEACH CMAN 0200   76     200/ 10/ 12 1023.1R
CAPERS NEARSHORE 0208   76 76  190/ 10/ 12 1022.6R
FRIPP NEARSHORE  0108   76 77  180/ 10/ 12 1021.6R


STATION/POSITION TIME  TEMP    WIND        PRES    WAVE   SWELL
                       AIR SEA DIR/SP/G            HT/PER HT/PER/DIR
                 (UTC) (F)     (DEG/KT/KT) (MB)    (FT/S) (FT/S/D)
5E ST. MARYS GA  0151      79                N/A     2/ 8
FRYING PAN BUOY  0200   78 77  180/  8/ 10 1023.0R
BUOY 41025       0150   73 71  230/  8/ 10 1022.5R   2/ 7   2/130/ 7
CAPE LOOKOUT NC  0200   72     210/  6/  8 1022.7R
BUOY 41002       0150   75 78   60/ 10/ 12 1023.7R   2/ 8   2/ 80/ 8
BUOY 41010       0120   76 78   60/ 12/ 14 1022.2R
ST AUGUSTINE FL  0200   78 81  120/ 10/ 11 1023.3R


$$




USA.gov is the U.S. government's official web portal to all federal, state and local government web resources and services.